H1 CPF 2 NER 2021 3 20 9 079 01 glonass127 H2 1106403 9127 37869 2021 3 20 0 0 0 2021 3 23 23 45 0 900 1 1 0 0 0 1 H9 10 0 59293 0.00000 0 -20741730.124 13353756.514 -6394215.770 10 0 59293 900.00000 0 -19918793.737 12798361.395 -9409951.663 10 0 59293 1800.00000 0 -18886530.840 11926260.476 -12242224.607 10 0 59293 2700.00000 0 -17702745.120 10726862.997 -14835666.897 10 0 59293 3600.00000 0 -16428155.612 9202397.186 -17139529.012 10 0 59293 4500.00000 0 -15123775.007 7368092.673 -19108694.337 10 0 59293 5400.00000 0 -13848290.717 5251815.332 -20704583.321 10 0 59293 6300.00000 0 -12655561.212 2893167.330 -21895927.510 10 0 59293 7200.00000 0 -11592335.300 342088.694 -22659396.644 10 0 59293 8100.00000 0 -10696292.419 -2342981.672 -22980065.393 10 0 59293 9000.00000 0 -9994487.974 -5097308.505 -22851709.828 10 0 59293 9900.00000 0 -9502270.148 -7852333.274 -22276927.498 10 0 59293 10800.00000 0 -9222713.906 -10538313.378 -21267078.962 10 0 59293 11700.00000 0 -9146595.356 -13087015.876 -19842052.488 10 0 59293 12600.00000 0 -9252906.131 -15434351.953 -18029857.541 10 0 59293 13500.00000 0 -9509883.998 -17522841.224 -15866056.320 10 0 59293 14400.00000 0 -9876513.669 -19303802.659 -13393046.048 10 0 59293 15300.00000 0 -10304431.693 -20739180.869 -10659207.836 10 0 59293 16200.00000 0 -10740152.222 -21802932.649 -7717940.611 10 0 59293 17100.00000 0 -11127517.109 -22481917.744 -4626600.742 10 0 59293 18000.00000 0 -11410264.817 -22776259.135 -1445369.815 10 0 59293 18900.00000 0 -11534608.182 -22699160.945 1763926.015 10 0 59293 19800.00000 0 -11451711.541 -22276194.916 4939021.142 10 0 59293 20700.00000 0 -11119962.737 -21544088.659 8018416.076 10 0 59293 21600.00000 0 -10506944.925 -20549069.393 10942560.147 10 0 59293 22500.00000 0 -9591026.378 -19344834.844 13654989.159 10 0 59293 23400.00000 0 -8362502.917 -17990237.760 16103397.085 10 0 59293 24300.00000 0 -6824246.514 -16546781.451 18240622.939 10 0 59293 25200.00000 0 -4991834.046 -15076030.621 20025535.926 10 0 59293 26100.00000 0 -2893151.529 -13637044.382 21423804.081 10 0 59293 27000.00000 0 -567490.307 -12283936.612 22408534.040 10 0 59293 27900.00000 0 1935828.107 -11063663.036 22960771.778 10 0 59293 28800.00000 0 4559242.950 -10014124.807 23069856.446 10 0 59293 29700.00000 0 7239088.981 -9162665.338 22733621.731 10 0 59293 30600.00000 0 9907989.563 -8525021.235 21958441.393 10 0 59293 31500.00000 0 12497411.987 -8104769.959 20759117.834 10 0 59293 32400.00000 0 14940282.367 -7893296.972 19158614.903 10 0 59293 33300.00000 0 17173554.607 -7870284.240 17187638.411 10 0 59293 34200.00000 0 19140629.038 -8004700.903 14884070.282 10 0 59293 35100.00000 0 20793521.788 -8256256.384 12292264.776 10 0 59293 36000.00000 0 22094695.199 -8577256.932 9462217.740 10 0 59293 36900.00000 0 23018472.617 -8914789.550 6448622.540 10 0 59293 37800.00000 0 23551977.340 -9213142.928 3309828.817 10 0 59293 38700.00000 0 23695554.650 -9416364.223 106722.596 10 0 59293 39600.00000 0 23462657.029 -9470843.884 -3098451.349 10 0 59293 40500.00000 0 22879195.127 -9327818.432 -6243302.287 10 0 59293 41400.00000 0 21982379.705 -8945683.608 -9266517.452 10 0 59293 42300.00000 0 20819101.687 -8292017.494 -12109072.050 10 0 59293 43200.00000 0 19443917.600 -7345224.879 -14715400.263 10 0 59293 44100.00000 0 17916725.069 -6095729.838 -17034502.443 10 0 59293 45000.00000 0 16300226.908 -4546662.642 -19020964.724 10 0 59293 45900.00000 0 14657291.832 -2714008.727 -20635869.093 10 0 59293 46800.00000 0 13048324.663 -626210.657 -21847574.198 10 0 59293 47700.00000 0 11528758.661 1676762.195 -22632349.969 10 0 59293 48600.00000 0 10146777.434 4144838.440 -22974852.452 10 0 59293 49500.00000 0 8941363.768 6719704.635 -22868428.739 10 0 59293 50400.00000 0 7940758.576 9337022.111 -22315245.740 10 0 59293 51300.00000 0 7161395.048 11928906.989 -21326240.401 10 0 59293 52200.00000 0 6607352.342 14426568.464 -19920892.920 10 0 59293 53100.00000 0 6270350.540 16762993.573 -18126828.395 10 0 59293 54000.00000 0 6130285.012 18875565.072 -15979255.987 10 0 59293 54900.00000 0 6156275.010 20708502.193 -13520258.135 10 0 59293 55800.00000 0 6308179.312 22215021.940 -10797945.511 10 0 59293 56700.00000 0 6538511.807 23359131.082 -7865496.080 10 0 59293 57600.00000 0 6794673.169 24116975.153 -4780098.818 10 0 59293 58500.00000 0 7021401.759 24477689.956 -1601824.447 10 0 59293 59400.00000 0 7163338.215 24443722.598 1607553.392 10 0 59293 60300.00000 0 7167594.128 24030611.568 4785762.616 10 0 59293 61200.00000 0 6986215.859 23266238.214 7871238.775 10 0 59293 62100.00000 0 6578439.818 22189583.912 10804309.396 10 0 59293 63000.00000 0 5912645.021 20849047.400 13528334.306 10 0 59293 63900.00000 0 4967922.092 19300394.500 15990781.002 10 0 59293 64800.00000 0 3735194.232 17604426.779 18144216.065 10 0 59293 65700.00000 0 2217844.477 15824466.464 19947195.619 10 0 59293 66600.00000 0 431824.002 14023761.611 21365039.963 10 0 59293 67500.00000 0 -1594762.741 12262917.906 22370479.860 10 0 59293 68400.00000 0 -3822579.181 10597461.717 22944164.247 10 0 59293 69300.00000 0 -6202446.942 9075633.267 23075021.366 10 0 59293 70200.00000 0 -8677149.590 7736499.117 22760467.641 10 0 59293 71100.00000 0 -11183577.595 6608460.214 22006460.845 10 0 59293 72000.00000 0 -13655128.558 5708215.899 20827396.320 10 0 59293 72900.00000 0 -16024266.351 5040226.052 19245847.336 10 0 59293 73800.00000 0 -18225136.067 4596693.571 17292152.932 10 0 59293 74700.00000 0 -20196128.642 4358068.592 15003859.089 10 0 59293 75600.00000 0 -21882290.476 4294054.551 12425021.509 10 0 59293 76500.00000 0 -23237478.670 4365075.598 9605380.829 10 0 59293 77400.00000 0 -24226171.956 4524145.578 6599423.798 10 0 59293 78300.00000 0 -24824860.816 4719061.565 3465346.412 10 0 59293 79200.00000 0 -25022956.895 4894830.720 263937.442 10 0 59293 80100.00000 0 -24823181.323 4996228.534 -2942596.890 10 0 59293 81000.00000 0 -24241413.156 4970379.994 -6091844.533 10 0 59293 81900.00000 0 -23306001.801 4769253.261 -9122411.588 10 0 59293 82800.00000 0 -22056570.218 4351958.228 -11975133.612 10 0 59293 83700.00000 0 -20542357.695 3686749.905 -14594249.134 10 0 59293 84600.00000 0 -18820171.080 2752648.560 -16928510.546 10 0 59293 85500.00000 0 -16952030.694 1540604.701 -18932208.535 10 0 59294 0.00000 0 -15002610.648 54156.359 -20566087.952 10 0 59294 900.00000 0 -13036582.535 -1690452.556 -21798135.448 10 0 59294 1800.00000 0 -11115975.556 -3664698.894 -22604221.463 10 0 59294 2700.00000 0 -9297666.602 -5828737.672 -22968583.182 10 0 59294 3600.00000 0 -7631106.120 -8132848.981 -22884137.997 10 0 59294 4500.00000 0 -6156377.522 -10519314.882 -22352620.965 10 0 59294 5400.00000 0 -4902671.645 -12924646.519 -21384543.777 10 0 59294 6300.00000 0 -3887240.244 -15282067.241 -19998976.566 10 0 59294 7200.00000 0 -3114871.473 -17524146.220 -18223157.775 10 0 59294 8100.00000 0 -2577907.483 -19585470.986 -16091941.024 10 0 59294 9000.00000 0 -2256800.817 -21405245.821 -13647091.332 10 0 59294 9900.00000 0 -2121183.144 -22929706.460 -10936446.248 10 0 59294 10800.00000 0 -2131397.863 -24114249.927 -8012960.119 10 0 59294 11700.00000 0 -2240428.611 -24925190.944 -4933651.944 10 0 59294 12600.00000 0 -2396139.183 -25341072.648 -1758479.136 10 0 59294 13500.00000 0 -2543727.679 -25353478.795 1450839.492 10 0 59294 14400.00000 0 -2628289.368 -24967315.912 4632027.551 10 0 59294 15300.00000 0 -2597378.971 -24200556.429 7723457.665 10 0 59294 16200.00000 0 -2403463.966 -23083456.329 10665337.456 10 0 59294 17100.00000 0 -2006165.955 -21657282.583 13400852.549 10 0 59294 18000.00000 0 -1374196.795 -19972605.552 15877245.592 10 0 59294 18900.00000 0 -486909.465 -18087228.883 18046812.169 10 0 59294 19800.00000 0 664599.969 -16063843.522 19867796.565 10 0 59294 20700.00000 0 2076884.159 -13967503.058 21305172.323 10 0 59294 21600.00000 0 3734054.778 -11863023.964 22331295.042 10 0 59294 22500.00000 0 5608214.961 -9812416.666 22926417.041 10 0 59294 23400.00000 0 7660396.573 -7872451.649 23079055.782 10 0 59294 24300.00000 0 9841964.860 -6092458.876 22786210.281 10 0 59294 25200.00000 0 12096434.373 -4512449.303 22053421.920 10 0 59294 26100.00000 0 14361623.528 -3161634.363 20894678.340 10 0 59294 27000.00000 0 16572061.408 -2057403.413 19332161.363 10 0 59294 27900.00000 0 18661549.995 -1204800.864 17395842.183 10 0 59294 28800.00000 0 20565777.985 -596524.869 15122929.545 10 0 59294 29700.00000 0 22224879.654 -213448.301 12557179.062 10 0 59294 30600.00000 0 23585833.497 -25641.516 9748074.380 10 0 59294 31500.00000 0 24604600.862 6144.365 6749893.580 10 0 59294 32400.00000 0 25247914.656 -71405.618 3620676.710 10 0 59294 33300.00000 0 25494641.736 -206375.208 421112.735 10 0 59294 34200.00000 0 25336659.619 -344051.593 -2786633.388 10 0 59294 35100.00000 0 24779208.124 -429487.027 -5940131.108 10 0 59294 36000.00000 0 23840698.323 -410078.360 -8977908.204 10 0 59294 36900.00000 0 22551984.240 -238053.728 -11840663.296 10 0 59294 37800.00000 0 20955125.744 127241.203 -14472441.782 10 0 59294 38700.00000 0 19101693.158 717357.158 -16821750.389 10 0 59294 39600.00000 0 17050684.160 1553142.617 -18842586.386 10 0 59294 40500.00000 0 14866140.621 2643603.518 -20495359.298 10 0 59294 41400.00000 0 12614566.226 3985272.618 -21747685.187 10 0 59294 42300.00000 0 10362254.703 5562117.698 -22575036.242 10 0 59294 43200.00000 0 8172642.309 7345994.500 -22961231.753 10 0 59294 44100.00000 0 6103797.228 9297626.556 -22898760.012 10 0 59294 45000.00000 0 4206152.540 11368071.090 -22388924.476 10 0 59294 45900.00000 0 2520578.594 13500609.121 -21441811.452 10 0 59294 46800.00000 0 1076875.715 15632979.520 -20076080.459 10 0 59294 47700.00000 0 -107250.190 17699861.906 -18318582.310 10 0 59294 48600.00000 0 -1026687.726 19635502.744 -16203813.701 10 0 59294 49500.00000 0 -1688877.159 21376373.131 -13773220.442 10 0 59294 50400.00000 0 -2113229.379 22863745.580 -11074364.801 10 0 59294 51300.00000 0 -2330034.575 24046081.178 -8159975.012 10 0 59294 52200.00000 0 -2378910.213 24881127.003 -5086897.342 10 0 59294 53100.00000 0 -2306857.169 25337636.547 -1914972.908 10 0 59294 54000.00000 0 -2166009.160 25396642.433 1294137.408 10 0 59294 54900.00000 0 -2011172.919 25052230.059 4478156.071 10 0 59294 55800.00000 0 -1897264.596 24311782.180 7575395.907 10 0 59294 56700.00000 0 -1876751.380 23195686.707 10525947.664 10 0 59294 57600.00000 0 -1997206.230 21736522.421 13272825.619 10 0 59294 58500.00000 0 -2299077.923 19977758.663 15763050.211 10 0 59294 59400.00000 0 -2813768.985 17972024.719 17948648.432 10 0 59294 60300.00000 0 -3562100.731 15779021.583 19787554.843 10 0 59294 61200.00000 0 -4553228.238 13463162.824 21244398.060 10 0 59294 62100.00000 0 -5784049.518 11091041.443 22291160.024 10 0 59294 63000.00000 0 -7239132.987 8728825.948 22907697.581 10 0 59294 63900.00000 0 -8891166.340 6439691.268 23082118.157 10 0 59294 64800.00000 0 -10701909.122 4281388.192 22811003.645 10 0 59294 65700.00000 0 -12623611.085 2304049.269 22099478.834 10 0 59294 66600.00000 0 -14600839.738 548319.698 20961122.926 10 0 59294 67500.00000 0 -16572643.950 -956111.323 19417725.006 10 0 59294 68400.00000 0 -18474966.681 -2191519.063 17498886.593 10 0 59294 69300.00000 0 -20243209.241 -3152650.077 15241476.851 10 0 59294 70200.00000 0 -21814842.721 -3846706.048 12688948.522 10 0 59294 71100.00000 0 -23131959.373 -4292804.420 9890525.116 10 0 59294 72000.00000 0 -24143658.138 -4520937.008 6900272.654 10 0 59294 72900.00000 0 -24808164.332 -4570468.750 3776071.687 10 0 59294 73800.00000 0 -25094593.519 -4488238.262 578507.787 10 0 59294 74700.00000 0 -24984283.510 -4326339.071 -2630298.916 10 0 59294 75600.00000 0 -24471635.919 -4139674.711 -5787902.822 10 0 59294 76500.00000 0 -23564428.882 -3983391.212 -8832756.685 10 0 59294 77400.00000 0 -22283584.802 -3910296.689 -11705425.273 10 0 59294 78300.00000 0 -20662400.156 -3968379.063 -14349763.684 10 0 59294 79200.00000 0 -18745267.588 -4198529.544 -16714035.470 10 0 59294 80100.00000 0 -16585942.622 -4632571.133 -18751946.551 10 0 59294 81000.00000 0 -14245427.187 -5291678.700 -20423572.672 10 0 59294 81900.00000 0 -11789558.954 -6185260.502 -21696160.332 10 0 59294 82800.00000 0 -9286408.542 -7310351.044 -22544783.819 10 0 59294 83700.00000 0 -6803594.955 -8651543.106 -22952844.219 10 0 59294 84600.00000 0 -4405633.171 -10181463.235 -22912399.828 10 0 59294 85500.00000 0 -2151426.470 -11861771.352 -22424321.041 10 0 59295 0.00000 0 -92009.457 -13644642.297 -21498266.872 10 0 59295 900.00000 0 1731363.112 -15474666.431 -20152483.835 10 0 59295 1800.00000 0 3288702.436 -17291087.744 -18413432.530 10 0 59295 2700.00000 0 4562284.423 -19030284.212 -16315249.873 10 0 59295 3600.00000 0 5547122.710 -20628384.451 -13899059.497 10 0 59295 4500.00000 0 6250897.557 -22023909.103 -11212145.350 10 0 59295 5400.00000 0 6693347.535 -23160325.045 -8307006.527 10 0 59295 6300.00000 0 6905153.066 -23988404.527 -5240313.591 10 0 59295 7200.00000 0 6926362.528 -24468290.282 -2071788.521 10 0 59295 8100.00000 0 6804430.722 -24571180.686 1136968.432 10 0 59295 9000.00000 0 6591955.414 -24280565.728 4323681.087 10 0 59295 9900.00000 0 6344209.600 -23592963.834 7426604.764 10 0 59295 10800.00000 0 6116575.012 -22518130.941 10385715.378 10 0 59295 11700.00000 0 5961985.520 -21078735.289 13143857.660 10 0 59295 12600.00000 0 5928487.769 -19309513.578 15647831.362 10 0 59295 13500.00000 0 6057020.641 -17255945.227 17849396.115 10 0 59295 14400.00000 0 6379505.347 -14972500.784 19706177.676 10 0 59295 15300.00000 0 6917324.601 -12520537.438 21182460.326 10 0 59295 16200.00000 0 7680253.026 -9965928.139 22249852.606 10 0 59295 17100.00000 0 8665882.398 -7376521.007 22887815.816 10 0 59295 18000.00000 0 9859565.231 -4819532.055 23084046.961 10 0 59295 18900.00000 0 11234879.308 -2358976.404 22834710.149 10 0 59295 19800.00000 0 12754594.973 -53241.408 22144512.656 10 0 59295 20700.00000 0 14372106.707 2047100.538 21026624.112 10 0 59295 21600.00000 0 16033271.875 3901151.274 19502439.559 10 0 59295 22500.00000 0 17678582.900 5479142.922 17601189.367 10 0 59295 23400.00000 0 19245585.158 6763431.114 15359401.513 10 0 59295 24300.00000 0 20671442.341 7748984.329 12820224.102 10 0 59295 25200.00000 0 21895544.203 8443348.380 10032618.604 10 0 59295 26100.00000 0 22862048.774 8866086.398 7050436.910 10 0 59295 27000.00000 0 23522252.861 9047716.294 3931397.855 10 0 59295 27900.00000 0 23836690.630 9028188.810 735981.268 10 0 59295 28800.00000 0 23776870.417 8854968.800 -2473739.994 10 0 59295 29700.00000 0 23326574.270 8580799.784 -5635307.746 10 0 59295 30600.00000 0 22482662.525 8261245.916 -8687102.147 10 0 59295 31500.00000 0 21255346.302 7952115.799 -11569556.410 10 0 59295 32400.00000 0 19667913.335 7706878.476 -14226337.446 10 0 59295 33300.00000 0 17755915.884 7574182.947 -16605467.522 10 0 59295 34200.00000 0 15565852.798 7595588.768 -18660362.859 10 0 59295 35100.00000 0 13153399.783 7803606.592 -20350766.851 10 0 59295 36000.00000 0 10581261.617 8220134.440 -21643557.657 10 0 59295 36900.00000 0 7916736.719 8855358.447 -22513412.685 10 0 59295 37800.00000 0 5229096.984 9707166.726 -22943315.649 10 0 59295 38700.00000 0 2586893.803 10761102.690 -22924895.425 10 0 59295 39600.00000 0 55304.456 11990860.632 -22458589.661 10 0 59295 40500.00000 0 -2306368.942 13359302.751 -21553629.987 10 0 59295 41400.00000 0 -4446942.602 14819954.175 -20227849.628 10 0 59295 42300.00000 0 -6325242.232 16318911.785 -18507318.095 10 0 59295 43200.00000 0 -7911563.791 17797084.852 -16425811.335 10 0 59295 44100.00000 0 -9188644.129 19192671.382 -14024129.217 10 0 59295 45000.00000 0 -10152103.067 20443764.138 -11349275.446 10 0 59295 45900.00000 0 -10810341.404 21490975.157 -8453517.767 10 0 59295 46800.00000 0 -11183902.634 22279967.302 -5393348.596 10 0 59295 47700.00000 0 -11304328.904 22763785.874 -2228368.149 10 0 59295 48600.00000 0 -11212563.079 22904892.456 979886.692 10 0 59295 49500.00000 0 -10956967.545 22676816.411 4169143.912 10 0 59295 50400.00000 0 -10591045.956 22065356.091 7277604.166 10 0 59295 51300.00000 0 -10170965.877 21069281.255 10245131.365 10 0 59295 52200.00000 0 -9752987.715 19700509.218 13014403.455 10 0 59295 53100.00000 0 -9390908.288 17983749.356 15532002.159 10 0 59295 54000.00000 0 -9133625.842 15955632.316 17749422.258 10 0 59295 54900.00000 0 -9022927.473 13663361.228 19623983.036 10 0 59295 55800.00000 0 -9091590.005 11162941.314 21119626.534 10 0 59295 56700.00000 0 -9361872.098 8517060.791 22207589.716 10 0 59295 57600.00000 0 -9844459.047 5792709.532 22866939.834 10 0 59295 58500.00000 0 -10537903.226 3058632.029 23084964.587 10 0 59295 59400.00000 0 -11428583.116 382717.365 22857410.971 10 0 59295 60300.00000 0 -12491183.029 -2170568.793 22188568.942 10 0 59295 61200.00000 0 -13689674.686 -4542606.861 21091198.228 10 0 59295 62100.00000 0 -14978761.688 -6682803.022 19586298.934 10 0 59295 63000.00000 0 -16305729.084 -8550437.842 17702728.845 10 0 59295 63900.00000 0 -17612623.546 -10116108.386 15476672.776 10 0 59295 64800.00000 0 -18838675.719 -11362704.601 12950971.750 10 0 59295 65700.00000 0 -19922865.723 -12285879.070 10174322.332 10 0 59295 66600.00000 0 -20806525.927 -12893989.627 7200359.099 10 0 59295 67500.00000 0 -21435872.569 -13207515.869 4086635.758 10 0 59295 68400.00000 0 -21764359.634 -13257972.445 893522.833 10 0 59295 69300.00000 0 -21754754.697 -13086363.183 -2316957.703 10 0 59295 70200.00000 0 -21380847.201 -12741239.926 -5482338.691 10 0 59295 71100.00000 0 -20628714.314 -12276447.257 -8540931.223 10 0 59295 72000.00000 0 -19497487.753 -11748648.345 -11433040.360 10 0 59295 72900.00000 0 -17999585.838 -11214737.276 -14102148.019 10 0 59295 73800.00000 0 -16160397.801 -10729248.821 -16496038.083 10 0 59295 74700.00000 0 -14017430.949 -10341877.321 -18567839.601 10 0 59295 75600.00000 0 -11618954.538 -10095212.142 -20276965.643 10 0 59295 76500.00000 0 -9022196.051 -10022788.140 -21589927.485 10 0 59295 77400.00000 0 -6291165.260 -10147536.093 -22481006.457 10 0 59295 78300.00000 0 -3494197.564 -10480700.742 -22932769.029 10 0 59295 79200.00000 0 -701320.325 -11021273.804 -22936414.144 10 0 59295 80100.00000 0 2018446.341 -11755966.788 -22491945.562 10 0 59295 81000.00000 0 4599740.227 -12659724.981 -21608165.907 10 0 59295 81900.00000 0 6983347.379 -13696760.365 -20302492.966 10 0 59295 82800.00000 0 9118427.371 -14822058.721 -18600602.743 10 0 59295 83700.00000 0 10964380.624 -15983295.668 -16535907.471 10 0 59295 84600.00000 0 12492280.616 -17123078.933 -14148880.279 10 0 59295 85500.00000 0 13685812.643 -18181420.209 -11486241.476 10 0 59296 0.00000 0 14541682.413 -19098330.592 -8600024.224 10 0 59296 900.00000 0 15069480.375 -19816428.458 -5546539.295 10 0 59296 1800.00000 0 15291011.356 -20283449.623 -2385261.816 10 0 59296 2700.00000 0 15239120.771 -20454552.372 822338.024 10 0 59296 3600.00000 0 14956071.128 -20294322.247 4013995.551 10 0 59296 4500.00000 0 14491539.638 -19778392.065 7127859.695 10 0 59296 5400.00000 0 13900323.939 -18894611.116 10103684.985 10 0 59296 6300.00000 0 13239853.959 -17643716.039 12883984.846 10 0 59296 7200.00000 0 12567615.206 -16039477.091 15415124.821 10 0 59296 8100.00000 0 11938591.478 -14108315.279 17648336.256 10 0 59296 9000.00000 0 11402833.266 -11888407.321 19540632.931 10 0 59296 9900.00000 0 11003252.147 -9428316.264 21055615.177 10 0 59296 10800.00000 0 10773731.550 -6785204.213 22164148.479 10 0 59296 11700.00000 0 10737630.962 -4022700.170 22844905.729 10 0 59296 12600.00000 0 10906744.384 -1208509.402 23084764.634 10 0 59296 13500.00000 0 11280755.400 1588139.280 22879054.058 10 0 59296 14400.00000 0 11847211.225 4299105.740 22231645.316 10 0 59296 15300.00000 0 12582017.248 6859905.188 21154886.661 10 0 59296 16200.00000 0 13450432.689 9212126.025 19669381.490 10 0 59296 17100.00000 0 14408527.745 11305601.253 17803613.063 10 0 59296 18000.00000 0 15405043.697 13100245.086 15593420.951 10 0 59296 18900.00000 0 16383580.732 14567479.549 13081336.903 10 0 59296 19800.00000 0 17285024.234 15691191.855 10315790.276 10 0 59296 20700.00000 0 18050109.678 16468181.915 7350195.952 10 0 59296 21600.00000 0 18622019.578 16908080.094 4241940.043 10 0 59296 22500.00000 0 18948903.506 17032736.983 1051281.278 10 0 59296 23400.00000 0 18986214.312 16875109.028 -2159811.744 10 0 59296 24300.00000 0 18698760.338 16477685.319 -5328865.312 10 0 59296 25200.00000 0 18062384.502 15890520.667 -8394123.728 10 0 59296 26100.00000 0 17065196.242 15168957.384 -11295765.984 10 0 59296 27000.00000 0 15708300.872 14371132.212 -13977090.839 10 0 59296 27900.00000 0 14005992.079 13555374.669 -16385645.369 10 0 59296 28800.00000 0 11985396.322 12777608.420 -18474272.758 10 0 59296 29700.00000 0 9685581.473 12088867.631 -20202056.826 10 0 59296 30600.00000 0 7156165.262 11533035.639 -21535142.836 10 0 59296 31500.00000 0 4455481.006 11144903.904 -22447416.733 10 0 59296 32400.00000 0 1648377.224 10948635.324 -22921028.248 10 0 59296 33300.00000 0 -1196256.234 10956698.464 -22946746.695 10 0 59296 34200.00000 0 -4008131.029 11169318.691 -22524142.014 10 0 59296 35100.00000 0 -6718260.483 11574469.634 -21661587.578 10 0 59296 36000.00000 0 -9261603.031 12148404.828 -20376085.149 10 0 59296 36900.00000 0 -11579537.553 12856705.926 -18692916.272 10 0 59296 37800.00000 0 -13622066.829 13655801.482 -16645128.161 10 0 59296 38700.00000 0 -15349657.321 14494890.076 -14272865.582 10 0 59296 39600.00000 0 -16734639.406 15318184.289 -11622563.559 10 0 59296 40500.00000 0 -17762111.356 16067378.596 -8746018.467 10 0 59296 41400.00000 0 -18430311.906 16684235.026 -5699357.458 10 0 59296 42300.00000 0 -18750448.911 17113176.006 -2541928.142 10 0 59296 43200.00000 0 -18745994.885 17303774.134 664868.366 10 0 59296 44100.00000 0 -18451482.584 17213033.707 3858777.163 10 0 59296 45000.00000 0 -17910854.579 16807368.374 6977897.922 10 0 59296 45900.00000 0 -17175438.997 16064192.760 9961878.301 10 0 59296 46800.00000 0 -16301638.557 14973062.581 12753069.706 10 0 59296 47700.00000 0 -15348431.104 13536317.094 15297623.993 10 0 59296 48600.00000 0 -14374786.754 11769198.486 17546511.491 10 0 59296 49500.00000 0 -13437109.255 9699444.371 19456442.759 10 0 59296 50400.00000 0 -12586807.255 7366371.053 20990678.521 10 0 59296 51300.00000 0 -11868095.179 4819485.566 22119714.635 10 0 59296 52200.00000 0 -11316113.372 2116683.166 22821831.181 10 0 59296 53100.00000 0 -10955443.948 -677896.625 23083497.067 10 0 59296 54000.00000 0 -10799082.534 -3496269.057 22899623.812 10 0 59296 54900.00000 0 -10847907.655 -6269161.951 22273664.442 10 0 59296 55800.00000 0 -11090669.609 -8928629.439 21217555.621 10 0 59296 56700.00000 0 -11504499.732 -11410616.668 19751503.438 10 0 59296 57600.00000 0 -12055920.085 -13657371.967 17903615.539 10 0 59296 58500.00000 0 -12702313.226 -15619608.583 15709384.699 10 0 59296 59400.00000 0 -13393792.797 -17258327.624 13211031.395 10 0 59296 60300.00000 0 -14075398.865 -18546226.899 10456715.410 10 0 59296 61200.00000 0 -14689527.899 -19468636.509 7499629.226 10 0 59296 62100.00000 0 -15178496.754 -20023941.039 4396988.422 10 0 59296 63000.00000 0 -15487133.416 -20223469.047 1208936.788 10 0 59296 63900.00000 0 -15565285.059 -20090852.498 -2002613.712 10 0 59296 64800.00000 0 -15370136.374 -19660881.223 -5175186.163 10 0 59296 65700.00000 0 -14868238.106 -18977898.946 -8246961.464 10 0 59296 66600.00000 0 -14037157.246 -18093807.459 -11157995.900 10 0 59296 67500.00000 0 -12866675.802 -17065762.697 -13851408.357 10 0 59296 68400.00000 0 -11359483.912 -15953660.385 -16274512.202 10 0 59296 69300.00000 0 -9531334.669 -14817518.491 -18379867.592 10 0 59296 70200.00000 0 -7410651.028 -13714868.722 -20126231.547 10 0 59296 71100.00000 0 -5037598.908 -12698269.207 -21479385.273 10 0 59296 72000.00000 0 -2462663.830 -11813045.628 -22412820.730 10 0 59296 72900.00000 0 255209.996 -11095358.105 -22908271.708 10 0 59296 73800.00000 0 3050840.246 -10570677.068 -22956078.067 10 0 59296 74700.00000 0 5855293.042 -10252733.503 -22555375.524 10 0 59296 75600.00000 0 8598530.531 -10142988.160 -21714107.283 10 0 59296 76500.00000 0 11212107.582 -10230641.721 -20448857.691 10 0 59296 77400.00000 0 13631803.714 -10493184.307 -18784512.035 10 0 59296 78300.00000 0 15800079.508 -10897459.333 -16753750.326 10 0 59296 79200.00000 0 17668254.603 -11401194.505 -14396386.425 10 0 59296 80100.00000 0 19198316.617 -11954932.754 -11758567.180 10 0 59296 81000.00000 0 20364286.590 -12504278.938 -8891849.031 10 0 59296 81900.00000 0 21153085.831 -12992365.025 -5852171.906 10 0 59296 82800.00000 0 21564870.510 -13362427.611 -2698752.281 10 0 59296 83700.00000 0 21612823.184 -13560387.524 507081.569 10 0 59296 84600.00000 0 21322413.441 -13537321.865 3703088.242 10 0 59296 85500.00000 0 20730162.044 -13251724.205 6827321.714 99